Other Public Products
Issued by NWS Grand Forks, ND

Home | Current Version | Previous Version | Graphics & Text | Print | Product List | Glossary On
Versions: 1 2 3 4 5 6 7 8 9 10 11 12 13 14 15 16 17 18 19 20 21 22 23 24 25 26 27 28 29 30 31 32 33 34 35 36 37 38 39 40 41 42 43 44 45 46 47 48 49 50
000
FPUS83 KFGF 021410
OPUFGF
PRAIRIE TO PINES WEATHER ROUNDUP
NATIONAL WEATHER SERVICE EASTERN NORTH DAKOTA/GRAND FORKS ND
900 AM CDT WED SEP 02 2015

 **SATELLITE DATA USED TO AUGMENT SKY COVER AT AUTOMATED STATIONS**
 *****  WEATHER ACROSS EASTERN NORTH DAKOTA  *****

CITY           SKY/WX    TMP DP  RH WIND       PRES   REMARKS
GRAND FORKS    PTSUNNY   69  67  93 S7        29.83S FOG
GRAND FORKS AF CLOUDY    69  69  99 S9        29.83S
GRAND CITY NWS   N/A     68 N/A N/A S7          N/A
BUXTON         NOT AVBL
DEVILS LAKE    SUNNY     70  61  73 SE8       29.81F
FARGO          SUNNY     71  63  75 SE14      29.85S
WAHPETON ARPT  SUNNY     68  61  77 SE12      29.85F
$$

 *****  WEATHER ACROSS CENTRAL AND WESTERN NORTH DAKOTA  *****

CITY           SKY/WX    TMP DP  RH WIND       PRES   REMARKS
JAMESTOWN      SUNNY     68  64  87 S8        29.83R
BISMARCK       FOG       62  62 100 E5        29.82R VSB 1/4
MINOT          SUNNY     66  62  87 SW5       29.78F
MINOT AFB      SUNNY     66  66 100 CALM      29.78S
GARRISON         N/A     67  63  87 CALM      29.80F
WILLISTON      MOSUNNY   69  53  56 NE3       29.77S
DICKINSON      MOSUNNY   68  57  68 E9        29.78F
HETTINGER      MOSUNNY   61  55  81 CALM      29.83R
$$

 *****  OTHER OBSERVATIONS NORTHEAST NORTH DAKOTA  *****

CITY           SKY/WX    TMP DP  RH WIND       PRES   REMARKS
WALHALLA       FAIR      68  68 100 MISG      29.81
LANGDON        FAIR      72  66  83 S12       29.84R
CAVALIER       FAIR      68  64  88 S7        29.82S
GRAFTON        FOG       66  66 100 S9        29.84R VSB 1/4
CANDO          NOT AVBL
FORT TOTTEN    NOT AVBL
ROLLA          FAIR      68  68 100 S10       29.83S
RUGBY          FAIR      68  68 100 SE5       29.80F
 ***** THE ABOVE OBSERVATIONS ARE NON NWS ARE NOT QUALITY
        CONTROLLED AND MAY MIS-REPORT RAIN FOR SNOW...
$$

 *****  OTHER OBSERVATIONS SOUTHEAST NORTH DAKOTA *****

CITY           SKY/WX    TMP DP  RH WIND       PRES   REMARKS
COOPERSTOWN    NOT AVBL
VALLEY CITY    FAIR      66  66 100 SE12      29.84S
OAKES            N/A     66  66 100 E6        29.83
GWINNER          N/A     68  68 100 SE9       29.84R
SHEYENNE NWR     N/A     68  65  89 SE8       29.95S
BUFFALO        NOT AVBL
WYNDMERE         N/A     70  64  83 SE8         N/A
 ***** THE ABOVE OBSERVATIONS ARE NON NWS ARE NOT QUALITY
       CONTROLLED AND MAY MIS-REPORT RAIN FOR SNOW...
$$

  *****  WEATHER ACROSS NORTHERN MINNESOTA  *****

CITY           SKY/WX    TMP DP  RH WIND       PRES   REMARKS
FLAG ISLAND    SUNNY     70  63  78 S13       29.87F
WARROAD        SUNNY     70  64  83 S3        29.88S
ROSEAU         SUNNY     72  66  83 S7        29.87S
HALLOCK        CLOUDY    72  68  88 S15       29.83S
THF RVR FALLS  SUNNY     72  68  88 S10       29.86F
HALSTAD        NOT AVBL
FOSSTON        SUNNY     70  64  83 S7        29.89F
BAUDETTE       SUNNY     67  60  78 SE5       29.89F
WASKISH        SUNNY     73  70  88 CALM      29.90S
CROOKSTON      SUNNY     72  66  83 S14       29.85S
$$
  *****  WEATHER ACROSS CENTRAL AND WEST MINNESOTA  *****

CITY           SKY/WX    TMP DP  RH WIND       PRES   REMARKS
BEMIDJI        SUNNY     71  68  90 S6        29.91S
PARK RAPIDS    FOG       69  68  96 SE6       29.91F VSB 1
WADENA         CLOUDY    66  66 100 SE3       29.90F FOG
DETROIT LAKES  SUNNY     70  64  83 SE9       29.90F
MOORHEAD       SUNNY     70  63  78 SE9       29.86S
FERGUS FALLS   SUNNY     72  64  78 SE12      29.86F
ELBOW LAKE     FAIR      69  64  84 SE9       29.87F
MORRIS MN      SUNNY     70  64  83 SE9       29.86F
STAPLES        SUNNY     70  70 100 E3        29.91S FOG
WHEATON        SUNNY     64  63  94 E13       29.86F
$$
  *****  WEATHER ELSEWHERE ACROSS MINNESOTA  *****

CITY           SKY/WX    TMP DP  RH WIND       PRES   REMARKS
DULUTH         LGT RAIN  66  63  90 S7        30.01R FOG
INTRNTL FALLS  PTSUNNY   64  60  87 SE6       29.94R
ELY            CLOUDY    61  57  88 S9        29.99S
CLOQUET        PTSUNNY   66  63  88 E6        29.98S FOG
BRAINERD       MOSUNNY   72  64  76 SE5       29.92S
HIBBING        TSTM      67  64  90 SE15G24   29.96S FOG
ALEXANDRIA     SUNNY     70  65  84 SE10      29.92S
SAINT CLOUD    CLOUDY    69  66  90 SE7       29.91S
MINNEAPOLIS    CLOUDY    72  67  84 E10       29.92F
$$

  *****  WEATHER ACROSS SOUTH DAKOTA  *****

CITY           SKY/WX    TMP DP  RH WIND       PRES   REMARKS
SIOUX FALLS    SUNNY     72  67  84 S10       29.86F
BROOKINGS      SUNNY     70  64  83 SE10      29.88S
WATERTOWN      SUNNY     71  67  87 SE9       29.85F
HURON          SUNNY     71  67  87 S9        29.80R
SISSETON         N/A     67  64  90 S12       29.84R
ABERDEEN       SUNNY     69  65  86 E6        29.81F
MITCHELL       SUNNY     70  68  93 SE12      29.81S
PIERRE         FOG       62  62 100 CALM      29.79R VSB<1/4
MOBRIDGE       FOG       65  65 100 SE5       29.79S VSB 1/2
RAPID CITY     PTSUNNY   69  57  65 CALM      29.86S
$$

  *****  SOME WEATHER IN NEARBY STATES *****

CITY           SKY/WX    TMP DP  RH WIND       PRES   REMARKS
GLASGOW MT     SUNNY     62  42  47 SE18      29.68R
GREAT FALLS MT CLOUDY    60  35  39 CALM      29.72R
CHEYENNE WY    SUNNY     70  42  36 W16G23    30.14R
SCOTTSBLUFF NE SUNNY     64  49  57 W3        29.99R
OMAHA NE       MOSUNNY   77  68  73 S17       29.92S
DES MOINES IA  PTSUNNY   73  68  84 S16       29.99F
DAVENPORT IA   PTSUNNY   78  70  76 SW7       30.06S
CHICAGO IL     MOSUNNY   77  69  76 SW5       30.07R
EAU CLAIRE WI  CLOUDY    72  69  90 CALM      29.99R
LA CROSSE WI   CLOUDY    77  69  76 SW5       29.96S
$$

  *****  SOME NATIONAL WEATHER *****

CITY           SKY/WX    TMP DP  RH WIND       PRES   REMARKS
LA GUARDIA NY  PTSUNNY   82  62  50 SW10      30.02S
RALEIGH NC     PTSUNNY   82  71  69 CALM      30.08F
ATLANTA GA     PTSUNNY   82  69  64 W3        30.14S
NEW ORLEANS LA CLOUDY    83  73  72 NE9       30.06F
OKLAHOMA CITY  MOSUNNY   75  68  78 S13       30.06S
ALBUQUERQUE NM PTSUNNY   70  47  43 CALM      30.23R
SALT LAKE CITY MOSUNNY   75  44  33 S17       30.01R
LOS ANGELES CA CLOUDY    70  60  70 CALM      29.97R
BOISE ID       CLOUDY    63  39  41 VRB6      29.87R
SEATTLE WA     MOCLDY    56  53  90 SW6       29.87R
$$

*** WEATHER ACROSS MANITOBA...SASKATCHEWAN AND ONTARIO ***
                ***ONTARIO***

CITY           SKY/WX    TMP DP  RH WIND       PRES   REMARKS
GERALDTON      MOSUNNY   68  57  68 W3        29.98S
THUNDER BAY    PTSUNNY   61  57  88 VRB2      29.99S
SIOUX LOOKOUT  SUNNY     66  59  77 S5        29.95S
TORONTO        MOSUNNY   79  68  69 VRB2      30.03S
BIG TROUT LK   CLOUDY    54  54 100 SE7       29.91S
PICKLE LAKE    MOSUNNY   70  55  60 VRB2      29.94F
DRYDEN         SUNNY     68  57  68 S8        29.94S
KENORA         MOSUNNY   70  59  68 S8        29.90F
$$
                *** MANITOBA***

CITY           SKY/WX    TMP DP  RH WIND       PRES   REMARKS
BRANDON        MOSUNNY   66  61  82 CALM      29.80S
DAUPHIN        SUNNY     64  57  77 W7        29.79R
ISLAND LAKE    MOSUNNY   64  59  82 E3        29.81F
PILOT MOUND      N/A     70  64  83 S8          N/A
THE PAS        NOT AVBL
THOMPSON       FOG       55  55 100 E3        29.77S VSB 1/2
WINNIPEG       SUNNY     70  66  88 S16       29.81S
LYNN LAKE      SUNNY     52  46  82 NW8       29.80R
CHURCHILL      CLOUDY    50  46  87 S16G24    29.86F
GILLAM         CLOUDY    50  48  93 SE9       29.84
$$
                ***SASKATCHEWAN***

CITY           SKY/WX    TMP DP  RH WIND       PRES   REMARKS
ESTEVAN        PTSUNNY   63  50  63 E7        29.78F
KINDERSLEY     PTSUNNY   57  37  47 SE10      29.63F
LLOYDMINSTER   PTSUNNY   52  43  71 SE10G20   29.61F
PRINCE ALBERT  PTSUNNY   54  48  82 E15       29.74F
REGINA         NOT AVBL



USA.gov is the U.S. government's official web portal to all federal, state and local government web resources and services.